Location: Appeville
(49.3218°N, 1.3427°W)
Time: 00:16:34
(UTC+00:00)

Cosmos 2034 Rocket - Pass Details

Date: 08 December 2019
Orbit: 957 x 1001 km, 82.9° (Epoch: 27 January)

Event Time Altitude Azimuth Distance (km) Brightness Sun altitude
Rises 05:36:50 0° 206° (SSW) 3,681 6.9 -20.2°
Reaches altitude 10° 05:39:26 10° 211° (SSW) 2,743 6.2 -19.8°
Maximum altitude 05:45:31 49° 286° (WNW) 1,260 4.2 -18.8°
Drops below altitude 10° 05:51:43 10° 1° (N) 2,782 6.2 -17.8°
Sets 05:54:22 0° 7° (N) 3,738 7.0 -17.4°
